When you browse on this site, cookies collect data to enhance your experience and personalize the content and advertising you see.
Visit our Privacy Policy to learn more. By continuing to use the site, you agree to this use of cookies and data.
  • en Suisse
  • Liste des pays
  • À 7 jours
  • Température de l'eau
  • Carte satellitaire
  • Carte météo
  • Widgets météo
  • user-avatar
    Se connecter

    Météo par heure à Hobart

    Ce jour, 23 Avril, Mardi

    Heure Température Précipitation Vent Pression Humidité
    00:00 +9°C° 0 mm 1 m/s 756 mmHg 85%
    01:00 +9°C° 0 mm 1 m/s 756 mmHg 86%
    02:00 +9°C° 0 mm 1 m/s 756 mmHg 87%
    03:00 +8°C° 0 mm 1 m/s 756 mmHg 88%
    04:00 +8°C° 0 mm 1 m/s 756 mmHg 89%
    05:00 +8°C° 0 mm 1 m/s 756 mmHg 89%
    06:00 +8°C° 0 mm 1 m/s 756 mmHg 89%
    07:00 +8°C° 0 mm 1 m/s 756 mmHg 89%
    08:00 +10°C° 0 mm 1 m/s 756 mmHg 78%
    09:00 +13°C° 0 mm 1 m/s 756 mmHg 67%
    10:00 +16°C° 0 mm 1 m/s 756 mmHg 55%
    11:00 +18°C° 0 mm 1 m/s 755 mmHg 54%
    12:00 +18°C° 0 mm 2 m/s 755 mmHg 54%
    13:00 +19°C° 0 mm 2 m/s 755 mmHg 53%
    14:00 +19°C° 0 mm 2 m/s 755 mmHg 55%
    15:00 +19°C° 0 mm 2 m/s 755 mmHg 57%
    16:00 +18°C° 0 mm 2 m/s 755 mmHg 59%
    17:00 +17°C° 0 mm 2 m/s 755 mmHg 66%
    18:00 +16°C° 0 mm 1 m/s 755 mmHg 72%
    19:00 +14°C° 0 mm 1 m/s 755 mmHg 79%
    20:00 +13°C° 0 mm 1 m/s 755 mmHg 83%
    21:00 +13°C° 0 mm 1 m/s 755 mmHg 88%
    22:00 +12°C° 0 mm 1 m/s 755 mmHg 92%
    23:00 +11°C° 0 mm 1 m/s 755 mmHg 93%

    Demain, 24 Avril, Mercredi

    Heure Température Précipitation Vent Pression Humidité
    00:00 +11°C° 0 mm 1 m/s 755 mmHg 94%
    01:00 +10°C° 0 mm 1 m/s 755 mmHg 96%
    02:00 +10°C° 0 mm 1 m/s 754 mmHg 96%
    03:00 +10°C° 0 mm 1 m/s 754 mmHg 96%
    04:00 +10°C° 0 mm 1 m/s 754 mmHg 96%
    05:00 +9°C° 0 mm 1 m/s 754 mmHg 96%
    06:00 +9°C° 0 mm 1 m/s 754 mmHg 96%
    07:00 +9°C° 0 mm 1 m/s 753 mmHg 96%
    08:00 +11°C° 0 mm 1 m/s 753 mmHg 85%
    09:00 +13°C° 0 mm 1 m/s 753 mmHg 74%
    10:00 +16°C° 0 mm 1 m/s 752 mmHg 63%
    11:00 +18°C° 0 mm 1 m/s 752 mmHg 54%
    12:00 +19°C° 0 mm 2 m/s 751 mmHg 46%
    13:00 +20°C° 0 mm 2 m/s 750 mmHg 38%
    14:00 +20°C° 0 mm 3 m/s 749 mmHg 40%
    15:00 +19°C° 0 mm 3 m/s 749 mmHg 42%
    16:00 +19°C° 0 mm 4 m/s 748 mmHg 44%
    17:00 +17°C° 0 mm 4 m/s 748 mmHg 52%
    18:00 +14°C° 0 mm 4 m/s 747 mmHg 61%
    19:00 +12°C° 0 mm 3 m/s 747 mmHg 69%
    20:00 +13°C° 0 mm 4 m/s 747 mmHg 69%
    21:00 +13°C° 0 mm 4 m/s 747 mmHg 68%
    22:00 +14°C° 0 mm 4 m/s 747 mmHg 68%
    23:00 +13°C° 0 mm 4 m/s 747 mmHg 68%

    Après-demain, 25 Avril, Jeudi

    Heure Température Précipitation Vent Pression Humidité
    00:00 +13°C° 0 mm 4 m/s 746 mmHg 67%
    01:00 +12°C° 0 mm 4 m/s 746 mmHg 67%
    02:00 +12°C° 0 mm 4 m/s 746 mmHg 67%
    03:00 +12°C° 0 mm 4 m/s 746 mmHg 66%
    04:00 +12°C° 0 mm 4 m/s 746 mmHg 65%
    05:00 +12°C° 0 mm 3 m/s 746 mmHg 67%
    06:00 +11°C° 0 mm 3 m/s 746 mmHg 68%
    07:00 +11°C° 0 mm 3 m/s 747 mmHg 69%
    08:00 +11°C° 0 mm 3 m/s 747 mmHg 66%
    09:00 +12°C° 0 mm 4 m/s 747 mmHg 63%
    10:00 +13°C° 0 mm 5 m/s 747 mmHg 59%
    11:00 +13°C° 0 mm 5 m/s 746 mmHg 57%
    12:00 +14°C° 0 mm 5 m/s 746 mmHg 55%
    13:00 +14°C° 0 mm 5 m/s 745 mmHg 53%
    14:00 +14°C° 0 mm 5 m/s 745 mmHg 54%
    15:00 +14°C° 0 mm 5 m/s 744 mmHg 55%
    16:00 +14°C° 0 mm 5 m/s 743 mmHg 56%
    17:00 +13°C° 0 mm 5 m/s 743 mmHg 58%
    18:00 +13°C° 0 mm 5 m/s 742 mmHg 60%
    19:00 +12°C° 0 mm 5 m/s 742 mmHg 63%
    20:00 +12°C° 0 mm 5 m/s 741 mmHg 62%
    21:00 +13°C° 0 mm 6 m/s 740 mmHg 62%
    22:00 +13°C° 0 mm 6 m/s 739 mmHg 61%
    23:00 +12°C° 0.2 mm 7 m/s 738 mmHg 63%

    26 Avril, Vendredi

    Heure Température Précipitation Vent Pression Humidité
    00:00 +12°C° 0.2 mm 7 m/s 738 mmHg 64%
    01:00 +12°C° 0.2 mm 8 m/s 737 mmHg 66%
    02:00 +10°C° 1 mm 8 m/s 737 mmHg 68%
    03:00 +7°C° 1 mm 8 m/s 737 mmHg 71%
    04:00 +5°C° 1 mm 8 m/s 737 mmHg 73%
    05:00 +5°C° 0 mm 8 m/s 738 mmHg 72%
    06:00 +5°C° 0 mm 8 m/s 738 mmHg 70%
    07:00 +5°C° 0 mm 8 m/s 739 mmHg 69%
    08:00 +5°C° 0 mm 8 m/s 740 mmHg 62%
    09:00 +6°C° 0 mm 9 m/s 740 mmHg 56%
    10:00 +7°C° 0 mm 10 m/s 741 mmHg 49%
    11:00 +7°C° 0 mm 9 m/s 741 mmHg 48%
    12:00 +8°C° 0 mm 9 m/s 742 mmHg 46%
    13:00 +8°C° 0 mm 9 m/s 742 mmHg 45%
    14:00 +8°C° 0 mm 9 m/s 742 mmHg 46%
    15:00 +7°C° 0 mm 9 m/s 743 mmHg 48%
    16:00 +7°C° 0 mm 8 m/s 743 mmHg 50%
    17:00 +6°C° 0 mm 8 m/s 744 mmHg 54%
    18:00 +5°C° 0 mm 7 m/s 745 mmHg 59%
    19:00 +4°C° 0 mm 6 m/s 746 mmHg 63%
    20:00 +4°C° 0 mm 6 m/s 746 mmHg 65%
    21:00 +5°C° 0 mm 6 m/s 747 mmHg 66%
    22:00 +5°C° 0 mm 6 m/s 747 mmHg 68%
    23:00 +6°C° 0 mm 5 m/s 747 mmHg 69%

    27 Avril, Samedi

    Heure Température Précipitation Vent Pression Humidité
    00:00 +6°C° 0 mm 5 m/s 747 mmHg 70%
    01:00 +5°C° 0 mm 5 m/s 747 mmHg 70%
    02:00 +6°C° 0 mm 5 m/s 746 mmHg 71%
    03:00 +6°C° 0 mm 4 m/s 746 mmHg 71%
    04:00 +6°C° 0 mm 4 m/s 746 mmHg 71%
    05:00 +7°C° 0 mm 4 m/s 745 mmHg 72%
    06:00 +7°C° 0 mm 4 m/s 745 mmHg 72%
    07:00 +8°C° 0 mm 5 m/s 745 mmHg 73%
    08:00 +9°C° 0 mm 6 m/s 744 mmHg 68%
    09:00 +11°C° 0 mm 7 m/s 744 mmHg 63%
    10:00 +12°C° 0 mm 8 m/s 743 mmHg 58%
    11:00 +13°C° 0 mm 9 m/s 742 mmHg 57%
    12:00 +13°C° 0 mm 9 m/s 742 mmHg 56%
    13:00 +14°C° 0 mm 10 m/s 741 mmHg 55%
    14:00 +13°C° 0.4 mm 10 m/s 741 mmHg 61%
    15:00 +12°C° 0.4 mm 9 m/s 740 mmHg 66%
    16:00 +11°C° 0.4 mm 9 m/s 740 mmHg 72%
    17:00 +11°C° 0.6 mm 8 m/s 740 mmHg 75%
    18:00 +11°C° 0.6 mm 8 m/s 741 mmHg 78%
    19:00 +10°C° 0.6 mm 7 m/s 741 mmHg 82%
    20:00 +10°C° 0 mm 7 m/s 742 mmHg 81%
    21:00 +9°C° 0 mm 7 m/s 743 mmHg 79%
    22:00 +9°C° 0 mm 7 m/s 743 mmHg 78%
    23:00 +8°C° 0 mm 7 m/s 744 mmHg 77%

    28 Avril, Dimanche

    Heure Température Précipitation Vent Pression Humidité
    00:00 +8°C° 0 mm 7 m/s 744 mmHg 76%
    01:00 +6°C° 0 mm 7 m/s 745 mmHg 75%
    02:00 +7°C° 0 mm 6 m/s 745 mmHg 76%
    03:00 +7°C° 0 mm 6 m/s 745 mmHg 76%
    04:00 +7°C° 0 mm 5 m/s 746 mmHg 76%
    05:00 +7°C° 0 mm 5 m/s 746 mmHg 77%
    06:00 +6°C° 0 mm 4 m/s 747 mmHg 78%
    07:00 +7°C° 0 mm 3 m/s 748 mmHg 79%
    08:00 +8°C° 0 mm 3 m/s 748 mmHg 74%
    09:00 +9°C° 0 mm 3 m/s 749 mmHg 68%
    10:00 +11°C° 0 mm 4 m/s 749 mmHg 63%
    11:00 +11°C° 0 mm 4 m/s 749 mmHg 62%
    12:00 +11°C° 0 mm 4 m/s 748 mmHg 60%
    13:00 +11°C° 0 mm 4 m/s 748 mmHg 59%
    14:00 +12°C° 0 mm 4 m/s 748 mmHg 61%
    15:00 +12°C° 0 mm 4 m/s 748 mmHg 64%
    16:00 +12°C° 0 mm 3 m/s 747 mmHg 66%
    17:00 +12°C° 0 mm 3 m/s 747 mmHg 70%
    18:00 +11°C° 0 mm 3 m/s 747 mmHg 74%
    19:00 +11°C° 0 mm 3 m/s 747 mmHg 78%
    20:00 +11°C° 0 mm 4 m/s 747 mmHg 77%
    21:00 +11°C° 0 mm 4 m/s 747 mmHg 75%
    22:00 +11°C° 0 mm 4 m/s 747 mmHg 74%
    23:00 +12°C° 0 mm 4 m/s 747 mmHg 74%
    Voir plus